{"data":{"norad_id":65361,"intl_designator":"2025-190L","name":"STARLINK-34800","alt_names":[],"object_type":"PAYLOAD","status":"ACTIVE","operator":null,"country":"US","launch_date":"2025-08-28","launch_site_code":"AFETR","launch_vehicle":null,"mission":null,"orbit_class":"UNKNOWN","rcs_meters":null,"size_class":null,"mass_kg":null,"dimensions":null,"purposes":["comms"],"wikipedia_slug":null,"has_3d_model":false,"image_url":null,"decayed_at":null,"tle_current":{"epoch":"2026-05-25T01:35:09.903840Z","epoch_age_seconds":69368,"freshness":"FRESH","line1":"1 65361U 25190L   26145.06608685  .00011831  00000+0  41089-3 0  9993","line2":"2 65361  53.1589 173.0679 0001208  82.8377 277.2761 15.30202562 40982","mean_motion":15.30202562,"eccentricity":0.0001208,"inclination_deg":53.1589,"raan_deg":173.0679,"arg_perigee_deg":82.8377,"mean_anomaly_deg":277.2761,"bstar":0.00041089,"rev_number":4098,"period_min":94.105188146979,"perigee_km":474.37953575389,"apogee_km":476.03530376571,"semimajor_km":6853.3444197598,"source":"CELESTRAK","updated_at":"2026-05-25T13:38:20.766870Z"}}}